Location: Hartford
(41.7640°N, 72.6860°W)
Time: 17:36:23
(UTC-04:00)

ISS - Visible Passes

Search period start: 22 August 2014 00:00
Search period end: 01 September 2014 00:00
Orbit: 413 x 419 km, 51.6° (Epoch: 22 August)

Date Brightness Start Highest point End Pass type
(mag) Time Alt. Az. Time Alt. Az. Time Alt. Az.
22 Aug -3.3 20:21:12 10° WNW 20:24:32 83° SW 20:27:33 12° SE visible
23 Aug -0.9 21:10:09 10° W 21:12:24 17° SW 21:13:58 13° SSW visible
24 Aug -1.6 20:21:03 10° WNW 20:23:59 29° SW 20:26:54 10° SSE visible
26 Aug -0.3 20:22:23 10° WSW 20:23:08 11° SW 20:23:53 10° SW visible
